OE8NDR-11 Weather Reports


Display with metric or nautical units.
time (UTC)temp
F
wind
direction
speed
MPH
gust
MPH
rain 1hr
in
rain 24hr
in
rain mn
in
humidity
%
barometer
mb
20260901220302 76 273 1.0 2.0 0.00 0.00 0.00 90 1016.0
20260901215802 76 273 0.0 3.0 0.00 0.00 0.00 90 1015.9
20260901215302 76 273 1.0 0.0 0.00 0.00 0.00 90 1015.8
20260901214802 76 273 2.0 3.0 0.00 0.00 0.00 90 1015.8
20260901214302 77 273 2.0 4.0 0.00 0.00 0.00 90 1015.9
20260901213802 77 275 0.0 3.0 0.00 0.00 0.00 90 1015.9
20260901213302 77 274 0.0 0.0 0.00 0.00 0.00 90 1015.8
20260901212802 76 274 0.0 0.0 0.00 0.00 0.00 89 1015.8
20260901212305 77 274 0.0 0.0 0.00 0.00 0.00 89 1015.8
20260901211802 77 274 0.0 1.0 0.00 0.00 0.00 89 1015.8
20260901211302 77 274 1.0 0.0 0.00 0.00 0.00 89 1015.7
20260901210802 78 274 1.0 4.0 0.00 0.00 0.00 89 1015.6
20260901210302 78 309 0.0 0.0 0.00 0.00 0.00 89 1015.7
20260901205802 78 309 0.0 0.0 0.00 0.00 0.00 89 1015.7
20260901205305 78 309 0.0 0.0 0.00 0.00 0.00 89 1015.7
20260901204802 78 309 1.0 2.0 0.00 0.00 0.00 89 1015.6
20260901204302 78 288 1.0 3.0 0.00 0.00 0.00 88 1015.6
20260901203802 78 288 1.0 2.0 0.00 0.00 0.00 88 1015.7
20260901203302 78 288 1.0 3.0 0.00 0.00 0.00 88 1015.6
20260901202802 78 288 1.0 2.0 0.00 0.00 0.00 88 1015.6
20260901202305 78 288 2.0 3.0 0.00 0.00 0.00 88 1015.5
20260901201802 79 288 2.0 3.0 0.00 0.00 0.00 87 1015.5
20260901201302 79 232 1.0 3.0 0.00 0.00 0.00 87 1015.4
20260901200802 79 100 1.0 2.0 0.00 0.00 0.00 87 1015.5
20260901200302 79 100 1.0 2.0 0.00 0.00 0.00 87 1015.5
20260901195802 79 100 1.0 2.0 0.00 0.00 0.00 87 1015.4
20260901195305 79 88 1.0 3.0 0.00 0.00 0.00 87 1015.5
20260901194802 79 88 1.0 2.0 0.00 0.00 0.00 87 1015.3
20260901194302 79 87 1.0 1.0 0.00 0.00 0.00 87 1015.2
20260901193802 79 87 2.0 3.0 0.00 0.00 0.00 87 1015.3
20260901193302 80 87 2.0 3.0 0.00 0.00 0.00 87 1015.2
20260901192802 80 126 1.0 2.0 0.00 0.00 0.00 86 1015.4
20260901192306 80 171 0.0 2.0 0.00 0.00 0.00 86 1015.3
20260901191802 80 171 0.0 0.0 0.00 0.00 0.00 86 1015.3
20260901191302 80 171 0.0 1.0 0.00 0.00 0.00 86 1015.3
20260901190802 80 171 0.0 0.0 0.00 0.00 0.00 86 1015.3
20260901190302 80 171 1.0 1.0 0.00 0.00 0.00 85 1015.2
20260901185802 80 171 1.0 1.0 0.00 0.00 0.00 85 1015.1
20260901185305 80 171 2.0 2.0 0.00 0.00 0.00 85 1015.1
20260901184802 80 171 2.0 4.0 0.00 0.00 0.00 85 1015.0
20260901184302 81 163 3.0 4.0 0.00 0.00 0.00 85 1015.1
20260901183802 81 143 3.0 4.0 0.00 0.00 0.00 85 1015.1
20260901183302 81 133 3.0 5.0 0.00 0.00 0.00 85 1014.9
20260901182802 81 101 2.0 6.0 0.00 0.00 0.00 85 1015.0
20260901182305 81 90 1.0 4.0 0.00 0.00 0.00 84 1014.8
20260901181802 81 80 1.0 1.0 0.00 0.00 0.00 84 1014.7
20260901181302 81 80 3.0 4.0 0.00 0.00 0.00 84 1014.6
20260901180802 81 86 3.0 4.0 0.00 0.00 0.00 84 1014.5
20260901180302 82 98 3.0 5.0 0.00 0.00 0.00 83 1014.4
20260901175802 82 126 4.0 5.0 0.00 0.00 0.00 83 1014.3
20260901175305 82 121 5.0 7.0 0.00 0.00 0.00 83 1014.3
20260901174802 82 113 5.0 7.0 0.00 0.00 0.00 83 1014.3
20260901174302 82 105 6.0 7.0 0.00 0.00 0.00 82 1014.2
20260901173802 82 98 7.0 8.0 0.00 0.00 0.00 81 1014.2
20260901173302 83 94 6.0 8.0 0.00 0.00 0.00 80 1014.2
20260901172802 83 99 4.0 7.0 0.00 0.00 0.00 79 1014.1
20260901172304 83 89 5.0 6.0 0.00 0.00 0.00 78 1014.0
20260901171802 84 116 6.0 8.0 0.00 0.00 0.00 78 1014.1
20260901171302 84 90 6.0 8.0 0.00 0.00 0.00 77 1013.9
20260901170802 85 115 6.0 8.0 0.00 0.00 0.00 76 1013.8
20260901170302 85 89 5.0 7.0 0.00 0.00 0.00 74 1013.8
20260901165802 86 114 4.0 7.0 0.00 0.00 0.00 73 1014.0
20260901165306 86 126 5.0 7.0 0.00 0.00 0.00 72 1014.0
20260901164803 86 130 6.0 9.0 0.00 0.00 0.00 71 1013.9
20260901164302 87 146 6.0 9.0 0.00 0.00 0.00 71 1013.9
20260901163802 87 133 6.0 9.0 0.00 0.00 0.00 70 1013.9
20260901163302 87 135 7.0 10.0 0.00 0.00 0.00 69 1013.9
20260901162802 88 134 8.0 11.0 0.00 0.00 0.00 69 1013.8
20260901162305 88 146 8.0 12.0 0.00 0.00 0.00 68 1013.7
20260901161802 88 123 6.0 10.0 0.00 0.00 0.00 67 1014.0
20260901161302 89 111 6.0 10.0 0.00 0.00 0.00 67 1014.0
20260901160802 89 128 7.0 12.0 0.00 0.00 0.00 66 1014.1
20260901160302 90 121 5.0 10.0 0.00 0.00 0.00 64 1014.1
20260901155802 91 148 2.0 9.0 0.00 0.00 0.00 62 1014.0
20260901155305 91 217 2.0 3.0 0.00 0.00 0.00 61 1013.9
20260901154802 91 215 3.0 4.0 0.00 0.00 0.00 61 1013.9
20260901154302 91 220 3.0 5.0 0.00 0.00 0.00 62 1014.0
20260901153802 91 256 4.0 6.0 0.00 0.00 0.00 62 1013.9
20260901153302 91 182 3.0 6.0 0.00 0.00 0.00 62 1014.0
20260901152802 91 202 2.0 5.0 0.00 0.00 0.00 62 1014.0
20260901152305 91 165 2.0 5.0 0.00 0.00 0.00 61 1013.9
20260901151802 91 184 2.0 5.0 0.00 0.00 0.00 61 1013.9
20260901151302 91 188 3.0 5.0 0.00 0.00 0.00 61 1013.9
20260901150802 91 175 3.0 5.0 0.00 0.00 0.00 61 1013.8
20260901150302 91 119 3.0 5.0 0.00 0.00 0.00 60 1013.7
20260901145802 91 146 4.0 7.0 0.00 0.00 0.00 60 1013.7
20260901145306 92 223 3.0 6.0 0.00 0.00 0.00 60 1013.7
20260901144802 91 165 3.0 5.0 0.00 0.00 0.00 59 1013.6
20260901144302 92 194 4.0 8.0 0.00 0.00 0.00 60 1013.6
20260901143802 91 263 5.0 7.0 0.00 0.00 0.00 61 1013.7
20260901143302 92 221 5.0 8.0 0.00 0.00 0.00 59 1013.7
20260901142802 92 229 6.0 8.0 0.00 0.00 0.00 61 1013.8
20260901142305 91 271 6.0 10.0 0.00 0.00 0.00 61 1013.7
20260901141802 91 225 5.0 10.0 0.00 0.00 0.00 63 1013.6
20260901141302 91 248 6.0 8.0 0.00 0.00 0.00 61 1013.7
20260901140802 91 286 7.0 12.0 0.00 0.00 0.00 61 1013.8
20260901140302 91 292 7.0 11.0 0.00 0.00 0.00 61 1013.7
20260901135802 91 235 8.0 10.0 0.00 0.00 0.00 62 1013.8
20260901135305 90 275 8.0 14.0 0.00 0.00 0.00 62 1013.8
20260901134802 90 273 9.0 13.0 0.00 0.00 0.00 62 1013.8
20260901134302 90 296 9.0 14.0 0.00 0.00 0.00 62 1013.8
20260901133802 91 273 7.0 14.0 0.00 0.00 0.00 63 1013.8
20260901133302 91 263 8.0 11.0 0.00 0.00 0.00 64 1013.9
20260901132802 90 267 8.0 12.0 0.00 0.00 0.00 64 1014.0
20260901132306 90 246 9.0 13.0 0.00 0.00 0.00 63 1014.1
20260901131803 90 221 9.0 12.0 0.00 0.00 0.00 65 1014.2
20260901131303 90 236 10.0 15.0 0.00 0.00 0.00 65 1014.2
20260901130802 90 242 9.0 16.0 0.00 0.00 0.00 65 1014.1
20260901130302 90 224 9.0 12.0 0.00 0.00 0.00 65 1014.2
20260901125802 90 230 10.0 17.0 0.00 0.00 0.00 65 1014.2
20260901125308 90 242 10.0 17.0 0.00 0.00 0.00 64 1014.2
20260901124803 90 247 10.0 17.0 0.00 0.00 0.00 63 1014.1
20260901124303 90 260 10.0 16.0 0.00 0.00 0.00 64 1014.1
20260901123803 90 242 10.0 15.0 0.00 0.00 0.00 62 1014.1
20260901123303 91 250 10.0 16.0 0.00 0.00 0.00 63 1014.2
20260901122803 91 225 9.0 14.0 0.00 0.00 0.00 62 1014.3
20260901122306 91 257 7.0 13.0 0.00 0.00 0.00 63 1014.2
20260901121803 91 234 7.0 13.0 0.00 0.00 0.00 62 1014.3
20260901121303 90 229 8.0 10.0 0.00 0.00 0.00 61 1014.3
20260901120803 90 283 8.0 13.0 0.00 0.00 0.00 61 1014.3
20260901120303 91 263 7.0 11.0 0.00 0.00 0.00 61 1014.5
20260901115803 91 298 7.0 10.0 0.00 0.00 0.00 61 1014.6
20260901115306 90 251 7.0 11.0 0.00 0.00 0.00 61 1014.7
20260901114803 90 289 6.0 10.0 0.00 0.00 0.00 61 1014.8
20260901114303 90 277 5.0 10.0 0.00 0.00 0.00 62 1014.7
20260901113803 90 265 6.0 12.0 0.00 0.00 0.00 62 1014.8
20260901113303 90 288 9.0 12.0 0.00 0.00 0.00 61 1014.8
20260901112803 90 290 8.0 14.0 0.00 0.00 0.00 63 1014.8
20260901112306 90 268 6.0 11.0 0.00 0.00 0.00 64 1014.8
20260901111803 89 278 6.0 11.0 0.00 0.00 0.00 64 1014.9
20260901111303 89 284 7.0 11.0 0.00 0.00 0.00 64 1014.9
20260901110803 89 269 7.0 11.0 0.00 0.00 0.00 64 1014.9
20260901110303 89 257 7.0 11.0 0.00 0.00 0.00 65 1014.9
20260901105803 89 309 7.0 13.0 0.00 0.00 0.00 65 1015.1
20260901105305 89 277 5.0 11.0 0.00 0.00 0.00 65 1015.0
20260901104803 89 282 6.0 9.0 0.00 0.00 0.00 64 1015.1
20260901104303 89 238 7.0 12.0 0.00 0.00 0.00 65 1015.1
20260901103803 89 259 4.0 11.0 0.00 0.00 0.00 64 1015.1
20260901103303 90 285 2.0 8.0 0.00 0.00 0.00 63 1015.2
20260901102803 89 326 2.0 4.0 0.00 0.00 0.00 62 1015.2
20260901102306 89 315 2.0 8.0 0.00 0.00 0.00 61 1015.3
20260901101803 89 313 3.0 8.0 0.00 0.00 0.00 62 1015.3
20260901101303 89 329 4.0 8.0 0.00 0.00 0.00 63 1015.3
20260901100803 88 224 4.0 7.0 0.00 0.00 0.00 61 1015.3
20260901100303 88 337 4.0 7.0 0.00 0.00 0.00 62 1015.3
20260901095803 88 306 3.0 6.0 0.00 0.00 0.00 62 1015.5
20260901095306 88 287 3.0 7.0 0.00 0.00 0.00 64 1015.5
20260901094803 88 30 4.0 5.0 0.00 0.00 0.00 65 1015.5
20260901093902 88 325 3.0 9.0 0.00 0.00 0.00 66 1015.6
20260901093402 88 279 4.0 6.0 0.00 0.00 0.00 66 1015.6
20260901092902 88 332 3.0 8.0 0.00 0.00 0.00 66 1015.6
20260901092402 89 301 1.0 5.0 0.00 0.00 0.00 66 1015.5
20260901091902 88 46 1.0 2.0 0.00 0.00 0.00 67 1015.6
20260901091402 88 32 2.0 3.0 0.00 0.00 0.00 68 1015.6
20260901090902 87 86 2.0 3.0 0.00 0.00 0.00 70 1015.5
20260901090402 87 355 2.0 3.0 0.00 0.00 0.00 70 1015.7
20260901085902 86 263 3.0 4.0 0.00 0.00 0.00 69 1015.7
20260901085056 86 327 3.0 4.0 0.00 0.00 0.00 70 1015.8
20260901084556 86 238 2.0 4.0 0.00 0.00 0.00 71 1015.8
20260901084055 86 343 3.0 4.0 0.00 0.00 0.00 71 1015.8
20260901083556 86 334 3.0 4.0 0.00 0.00 0.00 71 1015.8
20260901083056 86 355 4.0 8.0 0.00 0.00 0.00 71 1015.8
20260901082556 86 289 4.0 9.0 0.00 0.00 0.00 70 1015.7
20260901082056 86 301 3.0 9.0 0.00 0.00 0.00 70 1015.7
20260901081556 85 311 3.0 7.0 0.00 0.00 0.00 71 1015.6
20260901081056 85 312 3.0 8.0 0.00 0.00 0.00 71 1015.5
20260901080556 85 355 3.0 6.0 0.00 0.00 0.00 71 1015.6
20260901080056 85 314 3.0 7.0 0.00 0.00 0.00 71 1015.5
20260901075556 85 346 2.0 7.0 0.00 0.00 0.00 72 1015.4
20260901075056 85 344 3.0 6.0 0.00 0.00 0.00 71 1015.4
20260901074556 85 5 3.0 7.0 0.00 0.00 0.00 70 1015.5
20260901072644 83 323 4.0 8.0 0.00 0.00 0.00 71 1015.6
20260901072144 83 317 4.0 6.0 0.00 0.00 0.00 71 1015.5
20260901071644 82 355 3.0 5.0 0.00 0.00 0.00 72 1015.5
20260901071144 82 336 2.0 6.0 0.00 0.00 0.00 72 1015.4
20260901070644 82 336 2.0 5.0 0.00 0.00 0.00 74 1015.5
20260901070144 82 355 1.0 4.0 0.00 0.00 0.00 75 1015.5
20260901065644 81 336 1.0 4.0 0.00 0.00 0.00 75 1015.4
20260901065144 81 317 0.0 0.0 0.00 0.00 0.00 76 1015.4
20260901064644 80 338 0.0 0.0 0.00 0.00 0.00 78 1015.4
20260901064144 80 307 1.0 0.0 0.00 0.00 0.00 78 1015.5
20260901063644 79 313 2.0 4.0 0.00 0.00 0.00 79 1015.5
20260901063144 79 327 2.0 5.0 0.00 0.00 0.00 79 1015.4
20260901062644 78 312 3.0 4.0 0.00 0.00 0.00 81 1015.5
20260901062144 78 320 3.0 5.0 0.00 0.00 0.00 82 1015.5
20260901061644 77 312 3.0 4.0 0.00 0.00 0.00 82 1015.3
20260901061144 77 309 2.0 5.0 0.00 0.00 0.00 83 1015.3
20260901060644 76 311 1.0 4.0 0.00 0.00 0.00 84 1015.4
20260901060144 76 320 2.0 4.0 0.00 0.00 0.00 85 1015.4
20260901055644 75 320 2.0 4.0 0.00 0.00 0.00 85 1015.4
20260901055144 75 334 2.0 4.0 0.00 0.00 0.00 85 1015.4
20260901054644 75 316 2.0 3.0 0.00 0.00 0.00 86 1015.5
20260901054144 74 317 2.0 4.0 0.00 0.00 0.00 86 1015.5
20260901053644 74 341 1.0 2.0 0.00 0.00 0.00 87 1015.4
20260901053144 74 346 1.0 2.0 0.00 0.00 0.00 87 1015.3
20260901052644 74 346 2.0 4.0 0.00 0.00 0.00 87 1015.4
20260901052144 73 348 3.0 4.0 0.00 0.00 0.00 87 1015.4
20260901051644 73 329 2.0 4.0 0.00 0.00 0.00 87 1015.4
20260901051144 73 333 2.0 3.0 0.00 0.00 0.00 88 1015.5
20260901050644 73 334 2.0 3.0 0.00 0.00 0.00 88 1015.4
20260901045644 72 341 2.0 3.0 0.00 0.00 0.00 88 1015.4
20260901045144 72 341 1.0 3.0 0.00 0.00 0.00 89 1015.3
20260901044644 72 341 1.0 2.0 0.00 0.00 0.00 89 1015.3
20260901044144 72 341 2.0 2.0 0.00 0.00 0.00 90 1015.2
20260901043644 71 341 2.0 2.0 0.00 0.00 0.00 90 1015.2
20260901043144 71 341 2.0 3.0 0.00 0.00 0.00 90 1015.3
20260901042658 71 342 2.0 3.0 0.00 0.00 0.00 90 1015.4
20260901042144 71 342 2.0 3.0 0.00 0.00 0.00 90 1015.3
20260901041644 72 342 3.0 4.0 0.00 0.00 0.00 90 1015.3
20260901041144 72 337 3.0 4.0 0.00 0.00 0.00 91 1015.2
20260901040644 72 336 3.0 4.0 0.00 0.00 0.00 91 1015.2
20260901040144 72 327 4.0 4.0 0.00 0.00 0.00 91 1015.2
20260901035644 72 324 4.0 5.0 0.00 0.00 0.00 92 1015.1
20260901035144 72 327 3.0 4.0 0.00 0.00 0.00 92 1015.1
20260901034644 72 17 1.0 4.0 0.00 0.00 0.00 92 1015.2
20260901034144 73 57 0.0 0.0 0.00 0.00 0.00 92 1015.1
20260901033644 73 57 0.0 0.0 0.00 0.00 0.00 92 1015.2
20260901033144 73 57 0.0 0.0 0.00 0.00 0.00 92 1015.3
20260901032644 73 57 0.0 0.0 0.00 0.00 0.00 92 1015.2
20260901032144 73 57 0.0 0.0 0.00 0.00 0.00 92 1015.3
20260901031644 73 58 0.0 0.0 0.00 0.00 0.00 92 1015.3
20260901031144 73 58 0.0 0.0 0.00 0.00 0.00 93 1015.2
20260901030644 73 58 0.0 0.0 0.00 0.00 0.00 93 1015.2
20260901030144 73 58 1.0 2.0 0.00 0.00 0.00 92 1015.2
20260901025644 73 58 2.0 3.0 0.00 0.00 0.00 92 1015.2
20260901025144 73 78 1.0 2.0 0.00 0.00 0.00 92 1015.2
20260901024644 73 78 0.0 0.0 0.00 0.00 0.00 92 1015.2
20260901024144 73 78 0.0 0.0 0.00 0.00 0.00 92 1015.2
20260901023644 73 78 0.0 0.0 0.00 0.00 0.00 92 1015.2
20260901023144 73 78 0.0 0.0 0.00 0.00 0.00 92 1015.2
20260901022644 73 78 0.0 0.0 0.00 0.00 0.00 92 1015.1
20260901022144 73 78 1.0 0.0 0.00 0.00 0.00 92 1015.2
20260901021644 73 78 2.0 3.0 0.00 0.00 0.00 92 1015.2
20260901021144 73 78 2.0 3.0 0.00 0.00 0.00 92 1015.3
20260901020644 73 77 2.0 3.0 0.00 0.00 0.00 92 1015.2
20260901020144 73 76 1.0 3.0 0.00 0.00 0.00 92 1015.3
20260901015644 73 51 1.0 2.0 0.00 0.00 0.00 92 1015.3
20260901015144 74 49 2.0 3.0 0.00 0.00 0.00 92 1015.3
20260901014644 74 49 2.0 3.0 0.00 0.00 0.00 92 1015.3
20260901014144 74 49 2.0 3.0 0.00 0.00 0.00 91 1015.3
20260901013644 74 49 1.0 2.0 0.00 0.00 0.00 92 1015.3
20260901013144 75 49 1.0 2.0 0.00 0.00 0.00 92 1015.2
20260901012644 75 49 1.0 2.0 0.00 0.00 0.00 92 1015.3
20260901012144 75 49 2.0 2.0 0.00 0.00 0.00 92 1015.3
20260901011644 75 49 2.0 2.0 0.00 0.00 0.00 92 1015.3
20260901011144 74 49 2.0 3.0 0.00 0.00 0.00 91 1015.3
20260901010644 74 49 2.0 3.0 0.00 0.00 0.00 91 1015.3
20260901010144 74 49 1.0 3.0 0.00 0.00 0.00 91 1015.3
20260901005658 75 117 0.0 0.0 0.00 0.00 0.00 91 1015.3
20260901005144 75 117 0.0 0.0 0.00 0.00 0.00 91 1015.4
20260901004644 75 117 0.0 0.0 0.00 0.00 0.00 91 1015.3
20260901004144 75 117 0.0 0.0 0.00 0.00 0.00 91 1015.2
20260901003644 75 117 0.0 0.0 0.00 0.00 0.00 90 1015.2
20260901002644 75 117 1.0 1.0 0.00 0.00 0.00 90 1015.1
20260901002144 76 117 1.0 2.0 0.00 0.00 0.00 90 1015.0
20260901001644 76 117 2.0 2.0 0.00 0.00 0.00 91 1015.0
20260901001144 75 117 1.0 2.0 0.00 0.00 0.00 91 1014.9
20260901000644 75 117 0.0 1.0 0.00 0.00 0.00 90 1014.9
20260901000144 75 117 0.0 0.0 0.00 0.00 0.00 90 1014.8
20260831235644 75 117 0.0 0.0 0.00 0.00 0.00 90 1014.7
20260831235144 75 117 1.0 0.0 0.00 0.00 0.00 90 1014.7
20260831234644 75 117 1.0 2.0 0.00 0.00 0.00 90 1014.9
20260831234144 76 117 0.0 0.0 0.00 0.00 0.00 90 1014.9
20260831233644 76 117 0.0 0.0 0.00 0.00 0.00 90 1014.9
20260831233144 76 117 0.0 0.0 0.00 0.00 0.00 90 1015.1
20260831232644 76 117 0.0 0.0 0.00 0.00 0.00 89 1015.1
20260831232144 76 117 0.0 0.0 0.00 0.00 0.00 90 1014.9
20260831231644 76 117 0.0 0.0 0.00 0.00 0.00 89 1015.0
20260831231145 76 117 0.0 0.0 0.00 0.00 0.00 89 1015.0
20260831230644 76 117 0.0 0.0 0.00 0.00 0.00 89 1014.9
20260831230145 76 117 0.0 0.0 0.00 0.00 0.00 89 1014.8
20260831225645 76 117 0.0 0.0 0.00 0.00 0.00 89 1014.7
20260831225145 76 117 0.0 0.0 0.00 0.00 0.00 89 1014.7
20260831224644 76 117 1.0 1.0 0.00 0.00 0.00 89 1014.7
20260831224145 77 117 0.0 2.0 0.00 0.00 0.00 89 1014.8
20260831223645 77 117 0.0 0.0 0.00 0.00 0.00 89 1014.7
20260831223145 77 117 1.0 2.0 0.00 0.00 0.00 89 1014.6
20260831222645 77 117 1.0 2.0 0.00 0.00 0.00 89 1014.4
20260831222145 77 117 1.0 2.0 0.00 0.00 0.00 89 1014.4
20260831221645 76 117 0.0 2.0 0.00 0.00 0.00 89 1014.3
20260831221145 76 117 0.0 0.0 0.00 0.00 0.00 88 1014.3
20260831220645 77 117 1.0 1.0 0.00 0.00 0.00 88 1014.4